Hourly Weather Almaly

Today, 11 May, Tuesday

Time Temperature Precipitation Wind Pressure Humidity
00:00 +12°C° 0 mm 2 mps 767 mmHg 62%
01:00 +12°C° 0 mm 1 mps 767 mmHg 63%
02:00 +11°C° 0 mm 1 mps 767 mmHg 64%
03:00 +11°C° 0 mm 1 mps 767 mmHg 63%
04:00 +12°C° 0 mm 1 mps 768 mmHg 60%
05:00 +12°C° 0 mm 1 mps 768 mmHg 56%
06:00 +13°C° 0 mm 1 mps 768 mmHg 52%
07:00 +15°C° 0 mm 2 mps 768 mmHg 46%
08:00 +16°C° 0 mm 3 mps 769 mmHg 40%
09:00 +17°C° 0 mm 3 mps 769 mmHg 34%
10:00 +18°C° 0 mm 4 mps 769 mmHg 32%
11:00 +19°C° 0 mm 4 mps 768 mmHg 29%
12:00 +20°C° 0 mm 4 mps 768 mmHg 26%
13:00 +20°C° 0.1 mm 5 mps 768 mmHg 27%
14:00 +21°C° 0.1 mm 5 mps 768 mmHg 29%
15:00 +21°C° 0 mm 6 mps 767 mmHg 33%
16:00 +20°C° 0 mm 5 mps 767 mmHg 43%
17:00 +19°C° 0 mm 5 mps 767 mmHg 52%
18:00 +18°C° 0 mm 4 mps 766 mmHg 61%
19:00 +18°C° 0 mm 4 mps 766 mmHg 64%
20:00 +18°C° 0 mm 4 mps 766 mmHg 67%
21:00 +17°C° 0 mm 3 mps 766 mmHg 70%
22:00 +17°C° 0 mm 3 mps 766 mmHg 71%
23:00 +17°C° 0 mm 3 mps 766 mmHg 72%

Tomorrow, 12 May, Wednesday

Time Temperature Precipitation Wind Pressure Humidity
00:00 +17°C° 0 mm 2 mps 766 mmHg 73%
01:00 +17°C° 0 mm 3 mps 765 mmHg 73%
02:00 +17°C° 0 mm 3 mps 765 mmHg 74%
03:00 +17°C° 0 mm 3 mps 765 mmHg 75%
04:00 +18°C° 0 mm 4 mps 765 mmHg 69%
05:00 +19°C° 0 mm 5 mps 765 mmHg 63%
06:00 +20°C° 0 mm 6 mps 765 mmHg 58%
07:00 +21°C° 0 mm 7 mps 765 mmHg 51%
08:00 +23°C° 0 mm 7 mps 766 mmHg 45%
09:00 +26°C° 0 mm 8 mps 766 mmHg 38%
10:00 +27°C° 0 mm 8 mps 766 mmHg 36%
11:00 +28°C° 0 mm 8 mps 765 mmHg 33%
12:00 +31°C° 0 mm 8 mps 765 mmHg 31%
13:00 +31°C° 0 mm 8 mps 765 mmHg 29%
14:00 +32°C° 0 mm 8 mps 765 mmHg 28%
15:00 +32°C° 0 mm 7 mps 765 mmHg 27%
16:00 +30°C° 0.3 mm 6 mps 765 mmHg 31%
17:00 +29°C° 0.3 mm 4 mps 765 mmHg 35%
18:00 +28°C° 0.3 mm 3 mps 765 mmHg 38%
19:00 +28°C° 0.2 mm 4 mps 765 mmHg 39%
20:00 +27°C° 0.2 mm 5 mps 765 mmHg 39%
21:00 +27°C° 0.2 mm 6 mps 765 mmHg 40%
22:00 +26°C° 0 mm 7 mps 765 mmHg 38%
23:00 +26°C° 0 mm 8 mps 765 mmHg 37%

Day after tomorrow, 13 May, Thursday

Time Temperature Precipitation Wind Pressure Humidity
00:00 +24°C° 0 mm 9 mps 765 mmHg 36%
01:00 +23°C° 0 mm 9 mps 765 mmHg 36%
02:00 +23°C° 0 mm 9 mps 765 mmHg 36%
03:00 +22°C° 0 mm 9 mps 765 mmHg 36%
04:00 +23°C° 0 mm 9 mps 766 mmHg 33%
05:00 +23°C° 0 mm 9 mps 766 mmHg 29%
06:00 +23°C° 0 mm 9 mps 766 mmHg 26%
07:00 +26°C° 0 mm 9 mps 766 mmHg 23%
08:00 +27°C° 0 mm 10 mps 766 mmHg 20%
09:00 +29°C° 0 mm 11 mps 766 mmHg 16%
10:00 +31°C° 0 mm 10 mps 766 mmHg 16%
11:00 +32°C° 0 mm 10 mps 766 mmHg 15%
12:00 +33°C° 0 mm 10 mps 766 mmHg 15%
13:00 +33°C° 0 mm 9 mps 766 mmHg 14%
14:00 +34°C° 0 mm 8 mps 766 mmHg 13%
15:00 +34°C° 0 mm 8 mps 766 mmHg 12%
16:00 +33°C° 0 mm 7 mps 766 mmHg 13%
17:00 +33°C° 0 mm 6 mps 766 mmHg 13%
18:00 +32°C° 0 mm 6 mps 766 mmHg 13%
19:00 +30°C° 0 mm 6 mps 766 mmHg 15%
20:00 +28°C° 0 mm 6 mps 766 mmHg 16%
21:00 +27°C° 0 mm 6 mps 767 mmHg 18%
22:00 +26°C° 0 mm 6 mps 767 mmHg 19%
23:00 +26°C° 0 mm 7 mps 767 mmHg 20%

14 May, Friday

Time Temperature Precipitation Wind Pressure Humidity
00:00 +24°C° 0 mm 8 mps 767 mmHg 21%
01:00 +23°C° 0 mm 7 mps 768 mmHg 23%
02:00 +22°C° 0 mm 6 mps 768 mmHg 26%
03:00 +21°C° 0 mm 5 mps 768 mmHg 28%
04:00 +21°C° 0 mm 6 mps 768 mmHg 27%
05:00 +22°C° 0 mm 6 mps 768 mmHg 26%
06:00 +23°C° 0 mm 7 mps 769 mmHg 25%
07:00 +26°C° 0 mm 7 mps 769 mmHg 22%
08:00 +28°C° 0 mm 8 mps 769 mmHg 19%
09:00 +31°C° 0 mm 9 mps 769 mmHg 16%
10:00 +31°C° 0 mm 8 mps 769 mmHg 15%
11:00 +32°C° 0 mm 8 mps 769 mmHg 13%
12:00 +33°C° 0 mm 8 mps 769 mmHg 12%
13:00 +34°C° 0 mm 7 mps 769 mmHg 11%
14:00 +34°C° 0 mm 7 mps 768 mmHg 11%
15:00 +34°C° 0 mm 6 mps 768 mmHg 10%
16:00 +34°C° 0 mm 5 mps 768 mmHg 11%
17:00 +33°C° 0 mm 5 mps 768 mmHg 12%
18:00 +33°C° 0 mm 4 mps 768 mmHg 13%
19:00 +30°C° 0 mm 4 mps 768 mmHg 14%
20:00 +29°C° 0 mm 4 mps 767 mmHg 15%
21:00 +27°C° 0 mm 4 mps 767 mmHg 17%
22:00 +27°C° 0 mm 4 mps 767 mmHg 18%
23:00 +26°C° 0 mm 4 mps 767 mmHg 19%

15 May, Saturday

Time Temperature Precipitation Wind Pressure Humidity
00:00 +25°C° 0 mm 4 mps 767 mmHg 20%
01:00 +25°C° 0 mm 4 mps 767 mmHg 24%
02:00 +23°C° 0 mm 4 mps 767 mmHg 28%
03:00 +23°C° 0 mm 4 mps 767 mmHg 31%
04:00 +23°C° 0 mm 4 mps 767 mmHg 32%
05:00 +25°C° 0 mm 4 mps 768 mmHg 33%
06:00 +26°C° 0 mm 4 mps 768 mmHg 34%
07:00 +28°C° 0 mm 5 mps 768 mmHg 29%
08:00 +29°C° 0 mm 6 mps 767 mmHg 25%
09:00 +32°C° 0 mm 7 mps 767 mmHg 20%
10:00 +33°C° 0 mm 7 mps 767 mmHg 19%
11:00 +34°C° 0 mm 7 mps 767 mmHg 18%
12:00 +35°C° 0 mm 7 mps 767 mmHg 17%
13:00 +35°C° 0 mm 7 mps 766 mmHg 16%
14:00 +35°C° 0 mm 6 mps 766 mmHg 16%
15:00 +35°C° 0 mm 6 mps 766 mmHg 16%
16:00 +35°C° 0 mm 5 mps 766 mmHg 16%
17:00 +35°C° 0 mm 5 mps 765 mmHg 17%
18:00 +34°C° 0 mm 4 mps 765 mmHg 18%
19:00 +33°C° 0 mm 3 mps 765 mmHg 19%
20:00 +30°C° 0 mm 3 mps 765 mmHg 21%
21:00 +29°C° 0 mm 2 mps 765 mmHg 23%
22:00 +28°C° 0 mm 3 mps 765 mmHg 24%
23:00 +28°C° 0 mm 3 mps 765 mmHg 25%

16 May, Sunday

Time Temperature Precipitation Wind Pressure Humidity
00:00 +27°C° 0 mm 4 mps 765 mmHg 26%
01:00 +26°C° 0 mm 4 mps 765 mmHg 30%
02:00 +25°C° 0 mm 4 mps 765 mmHg 35%
03:00 +23°C° 0 mm 4 mps 765 mmHg 39%
04:00 +25°C° 0 mm 4 mps 766 mmHg 36%
05:00 +26°C° 0 mm 4 mps 766 mmHg 33%
06:00 +26°C° 0 mm 4 mps 766 mmHg 30%
07:00 +28°C° 0 mm 5 mps 766 mmHg 25%
08:00 +30°C° 0 mm 6 mps 766 mmHg 20%
09:00 +33°C° 0 mm 7 mps 766 mmHg 15%
10:00 +33°C° 0 mm 7 mps 765 mmHg 14%
11:00 +34°C° 0 mm 7 mps 765 mmHg 13%
12:00 +35°C° 0 mm 7 mps 765 mmHg 12%
13:00 +35°C° 0 mm 6 mps 765 mmHg 12%
14:00 +35°C° 0 mm 6 mps 764 mmHg 11%
15:00 +36°C° 0 mm 6 mps 764 mmHg 11%
16:00 +35°C° 0 mm 5 mps 764 mmHg 11%
17:00 +35°C° 0 mm 4 mps 764 mmHg 12%
18:00 +34°C° 0 mm 3 mps 764 mmHg 13%
19:00 +33°C° 0 mm 3 mps 764 mmHg 14%
20:00 +30°C° 0 mm 3 mps 764 mmHg 15%
21:00 +29°C° 0 mm 3 mps 764 mmHg 16%
22:00 +28°C° 0 mm 4 mps 764 mmHg 17%
23:00 +27°C° 0 mm 4 mps 764 mmHg 19%
Show more

We Need Your Consent

Meteoprog and our Service Providers may store and access personal data such as cookies, device identifiers or other similar technologies on your device and process such data to personalise content and ads, as well as provide social media features and to analyse the traffic.

  • Store and/or access information on your device

    Cookies, device identifiers or other information can be stored or accessed on your device for the purposes indicated above.

  • Personalised ads and content, ad and content measurement, audience insights, and products development

    Ads and content can be personalised based on a profile. More data can be added to better personalise ads and content. Ad and content performance can be measured. Insights about the audience who saw the ads and content can be derived. Such data can be used to develop or improve user’s experience, systems and software.

By clicking ‘I Agree’ you will allow the use of indicated cookies, device identifiers, web beacons or other similar technologies. Your settings can be changed in the browser on your device.

For certain purposes, legitimate interests may be relied on, rather than consent. You can read more about this in our Privacy and Cookie Policy.